This demonstration page uses our WeatherBlox Daily Observations layout. Learn more.

Left ArrowRight Arrow

39.08367, -84.50855

Hourly Observations for December 5, 2017

Temp ( °F °C ) Dew Point ( °F °C ) Humidity (%) Winds ( mph kmh ) Pressure ( in mb ) Visibility ( mi km ) Precip ( " mm )
12:53 am 00:53 Mostly Cloudy 56 13.3 48 8.9 75 75 S 12 19 29.89 1012 10 16 N/A
1:53 am 01:53 Mostly Cloudy 58 14.4 47 8.3 67 67 S 14 22 29.86 1011 10 16 N/A
2:53 am 02:53 Mostly Cloudy 59 15 47 8.3 64 64 S 16 26 29.85 1011 10 16 N/A
3:42 am 03:42 Cloudy with Heavy Rain 55 12.8 51 10.6 87 87 SW 13 20 29.94 1014 3 4 0.17 4.32
3:51 am 03:51 Cloudy with Rain 54 12 52 11 94 94 SW 9 15 29.94 1014 4 6 0.19 4.83
3:53 am 03:53 Cloudy with Heavy Rain 54 12.2 51 10.6 90 90 SW 9 15 29.90 1013 4 6 0.20 5.08
4:53 am 04:53 Cloudy with Light Rain 54 12.2 52 11.1 93 93 SSW 13 20 29.90 1012 7 11 0.15 3.81
5:53 am 05:53 Cloudy with Rain 55 12.8 53 11.7 93 93 S 16 26 29.90 1012 5 8 0.11 2.79
6:53 am 06:53 Cloudy with Light Rain 55 12.8 54 12.2 96 96 SSW 12 19 29.91 1013 7 11 0.04 1.02
7:15 am 07:15 Cloudy 55 12.8 54 12.2 96 96 S 10 17 29.94 1014 9 14 N/A
7:53 am 07:53 Cloudy with Light Rain 56 13.3 55 12.8 97 97 SSW 9 15 29.91 1013 8 13 N/A
8:38 am 08:38 Cloudy with Light Rain 55 12.8 53 11.7 93 93 NW 12 19 29.94 1014 7 11 N/A
8:53 am 08:53 Cloudy with Mist and Fog 52 11.1 50 10 93 93 WNW 10 17 29.94 1014 6 10 N/A
9:33 am 09:33 Cloudy 51 10.6 48 8.9 89 89 VRB 6 9 29.94 1014 10 16 N/A
9:53 am 09:53 Cloudy 51 10.6 47 8.3 86 86 WNW 12 19 29.98 1015 10 16 N/A
10:53 am 10:53 Mostly Cloudy 47 8.3 38 3.3 71 71 WNW 12 19 30.01 1016 10 16 N/A
11:17 am 11:17 Partly Cloudy 46 7.8 35 1.7 66 66 WNW 10 17 30.03 1017 10 16 N/A
11:45 am 11:45 Mostly Cloudy 45 7.2 35 1.7 68 68 WNW 12 19 30.03 1017 10 16 N/A
11:53 am 11:53 Mostly Cloudy 45 7.2 35 1.7 68 68 W 12 19 30.01 1016 10 16 N/A
12:53 pm 12:53 Partly Cloudy 46 7.8 37 2.8 71 71 W 12 19 30.00 1016 10 16 N/A
1:53 pm 13:53 Mostly Sunny 46 7.8 36 2.2 68 68 WSW 15 24 30.00 1016 10 16 N/A
2:53 pm 14:53 Partly Cloudy 43 6.1 32 undefined 65 65 W 20 31 30.03 1017 10 16 N/A
3:53 pm 15:53 Mostly Cloudy 40 4.4 28 -2.2 63 63 W 20 31 30.06 1018 10 16 N/A
4:53 pm 16:53 Partly Cloudy 40 4.4 28 -2.2 63 63 W 12 19 30.09 1019 10 16 N/A
5:53 pm 17:53 Mostly Clear 38 3.3 18 -7.8 44 44 W 14 22 30.10 1019 10 16 N/A
6:53 pm 18:53 Clear 36 2.2 22 -5.6 57 57 W 12 19 30.13 1020 10 16 N/A
7:53 pm 19:53 Clear 36 2.2 24 -4.4 62 62 W 14 22 30.15 1021 10 16 N/A
8:53 pm 20:53 Clear 34 1.1 22 -5.6 61 61 WSW 9 15 30.17 1022 10 16 N/A
9:53 pm 21:53 Clear 32 undefined 22 -5.6 66 66 SW 9 15 30.18 1022 10 16 N/A
10:53 pm 22:53 Clear 32 undefined 22 -5.6 66 66 SW 12 19 30.19 1022 10 16 N/A
11:53 pm 23:53 Clear 30 -1.1 22 -5.6 72 72 SW 6 9 30.19 1022 10 16 N/A

Powered by AerisWeather